Regional Weather Roundup
Issued by NWS

Home | Current Version | Previous Version | Graphics & Text | Print | Product List | Glossary On
Versions: 1 2 3 4 5 6 7 8 9 10 11 12 13 14 15 16 17 18 19 20 21 22 23 24 25 26 27 28 29 30 31 32 33 34 35 36 37 38 39 40 41 42 43 44 45 46 47 48 49 50
000
ASUS45 KABQ 121501
RWRNM
WEATHER ROUNDUP FOR NEW MEXICO
NATIONAL WEATHER SERVICE ALBUQUERQUE NM
900 AM MDT SAT JUL 12 2014

NOTE: "FAIR" MEANS FEW OR NO CLOUDS BELOW 12,000 FEET AGL WITH NO
       SIGNIFICANT WEATHER OR OBSTRUCTIONS TO VISION.

      THIS PRODUCT IS RELEASED AS TWO VERSIONS.  ONE VERSION NEAR
      THE TOP OF THE HOUR CONTAINING PRELIMINARY DATA FROM ALBUQUERQUE
      AND OTHER STATIONS.  A FINAL VERSION WITH ADDITIONAL DATA IS
      ISSUED ABOUT 10 MINUTES AFTER THE HOUR.

NMZ501-503-504-510>518-121600-
NORTHWEST PLATEAU/NORTHCENTRAL MOUNTAINS

CITY           SKY/WX    TMP DP  RH WIND       PRES   REMARKS
FARMINGTON     SUNNY     71  55  56 E5        30.26S
LOS ALAMOS     SUNNY     66  53  63 N6        30.38S
SANTA FE       SUNNY     71  53  52 N10       30.32R
TAOS             N/A    N/A N/A N/A MISG        N/A
ANGEL FIRE     PTSUNNY   51  50  98 CALM      30.48F FOG

$$
NMZ402-403-502-505>509-121600-
WESTCENTRAL MOUNTAINS/SOUTHWEST MOUNTAINS

CITY           SKY/WX    TMP DP  RH WIND       PRES   REMARKS
GALLUP         PTSUNNY   68  57  68 NE5       30.33R
GRANTS         SUNNY     68  54  60 CALM      30.35S

$$
NMZ407-409-411-412-121600-
SOUTHERN DESERTS

CITY           SKY/WX    TMP DP  RH WIND       PRES   REMARKS
LORDSBURG      FAIR      72  61  68 CALM      30.16R
DEMING         SUNNY     76  61  59 E13       30.16R
LAS CRUCES     MOSUNNY   78  60  54 E10       30.19R
T OR C         SUNNY     74  59  59 N5        30.21R

$$
NMZ519>523-121600-
CENTRAL VALLEYS/CENTRAL HIGHLANDS

CITY           SKY/WX    TMP DP  RH WIND       PRES   REMARKS
ALBUQUERQUE    MOSUNNY   72  58  61 CALM      30.26S
DOUBLE EAGLE   MOSUNNY   72  55  56 N8        30.30S
MORIARTY ARPT  FAIR      67  55  65 CALM      30.33R
CLINES CORNERS SUNNY     69  53  56 VRB6      30.35R
BELEN          FAIR      70  60  72 CALM      30.26S
SOCORRO        FAIR      75  55  49 N8        30.23S

$$
NMZ524>526-539-540-121600-
SOUTHCENTRAL MOUNTAINS

CITY           SKY/WX    TMP DP  RH WIND       PRES   REMARKS
RUIDOSO        NOT AVBL

$$
NMZ527>531-121600-
NORTHEAST HIGHLANDS/NORTHEAST PLAINS

CITY           SKY/WX    TMP DP  RH WIND       PRES   REMARKS
LAS VEGAS      SUNNY     68  52  56 SW10      30.36S
RATON          SUNNY     71  52  50 VRB3      30.31S
CLAYTON        SUNNY     76  56  49 SW12      30.24R

$$
NMZ532>537-121600-
EASTCENTRAL PLAINS

CITY           SKY/WX    TMP DP  RH WIND       PRES   REMARKS
TUCUMCARI      SUNNY     76  61  59 SW12      30.21S
CANNON AFB     NOT AVBL
CLOVIS AIRPORT NOT AVBL

$$
NMZ028-029-538-121600-
SOUTHEAST PLAINS

CITY           SKY/WX    TMP DP  RH WIND       PRES   REMARKS
ROSWELL        MOSUNNY   74  62  66 S6        30.19R
ARTESIA        MOSUNNY   73  63  68 SE9       30.19R
CARLSBAD       MOSUNNY   76  62  62 VRB5      30.17R
HOBBS          PTSUNNY   73  63  68 SE17      30.21S


$$



USA.gov is the U.S. government's official web portal to all federal, state and local government web resources and services.